owner,sensor,date,latitude,longitude,vertical_datum,wind_speed,wind_to_direction,wind_speed_of_gust,qcFlag 
DISL,ioos:station:DISL:DISL:1,2012-04-01T00:00:00Z,30.2513,-88.0778,9.68,3.13,234.4,-9999.0,'1111122,1111122,1111122' 
DISL,ioos:station:DISL:DISL:1,2012-04-01T00:30:00Z,30.2513,-88.0778,9.68,2.63,230.7,-9999.0,'1111122,1111122,1111122' 
DISL,ioos:station:DISL:DISL:1,2012-04-01T01:00:00Z,30.2513,-88.0778,9.68,2.47,227.3,-9999.0,'1111122,1111122,1111122' 
DISL,ioos:station:DISL:DISL:1,2012-04-01T01:30:00Z,30.2513,-88.0778,9.68,2.95,222.6,-9999.0,'1111122,1111122,1111122' 
DISL,ioos:station:DISL:DISL:1,2012-04-01T02:00:00Z,30.2513,-88.0778,9.68,2.98,220.8,-9999.0,'1111122,1111122,1111122' 
DISL,ioos:station:DISL:DISL:1,2012-04-01T02:30:00Z,30.2513,-88.0778,9.68,2.78,237.7,-9999.0,'1111122,1111122,1111122' 
DISL,ioos:station:DISL:DISL:1,2012-04-01T03:00:00Z,30.2513,-88.0778,9.68,2.75,235.4,-9999.0,'1111122,1111122,1111122' 
DISL,ioos:station:DISL:DISL:1,2012-04-01T03:30:00Z,30.2513,-88.0778,9.68,2.91,240.3,-9999.0,'1111122,1111122,1111122' 
DISL,ioos:station:DISL:DISL:1,2012-04-01T04:00:00Z,30.2513,-88.0778,9.68,3.17,225.1,-9999.0,'1111122,1111122,1111122' 
DISL,ioos:station:DISL:DISL:1,2012-04-01T04:30:00Z,30.2513,-88.0778,9.68,2.35,233.4,-9999.0,'1111122,1111122,1111122' 
DISL,ioos:station:DISL:DISL:1,2012-04-01T05:00:00Z,30.2513,-88.0778,9.68,1.95,241.4,-9999.0,'1111122,1111122,1111122' 
DISL,ioos:station:DISL:DISL:1,2012-04-01T05:30:00Z,30.2513,-88.0778,9.68,1.56,242.7,-9999.0,'1111122,1111122,1111122' 
DISL,ioos:station:DISL:DISL:1,2012-04-01T06:00:00Z,30.2513,-88.0778,9.68,1.75,268.1,-9999.0,'1111122,1111122,1111122' 
DISL,ioos:station:DISL:DISL:1,2012-04-01T06:30:00Z,30.2513,-88.0778,9.68,1.92,234.6,-9999.0,'1111122,1111122,1111122' 
DISL,ioos:station:DISL:DISL:1,2012-04-01T07:00:00Z,30.2513,-88.0778,9.68,2.03,247.1,-9999.0,'1111122,1111122,1111122' 
DISL,ioos:station:DISL:DISL:1,2012-04-01T07:30:00Z,30.2513,-88.0778,9.68,2.16,247.5,-9999.0,'1111122,1111122,1111122' 
DISL,ioos:station:DISL:DISL:1,2012-04-01T08:00:00Z,30.2513,-88.0778,9.68,2.51,255.4,-9999.0,'1111122,1111122,1111122' 
DISL,ioos:station:DISL:DISL:1,2012-04-01T08:30:00Z,30.2513,-88.0778,9.68,2.39,254.7,-9999.0,'1111122,1111122,1111122' 
DISL,ioos:station:DISL:DISL:1,2012-04-01T09:00:00Z,30.2513,-88.0778,9.68,2.11,257.0,-9999.0,'1111122,1111122,1111122' 
DISL,ioos:station:DISL:DISL:1,2012-04-01T09:30:00Z,30.2513,-88.0778,9.68,2.0,260.1,-9999.0,'1111122,1111122,1111122' 
DISL,ioos:station:DISL:DISL:1,2012-04-01T10:00:00Z,30.2513,-88.0778,9.68,2.52,255.7,-9999.0,'1111122,1111122,1111122' 
DISL,ioos:station:DISL:DISL:1,2012-04-01T10:30:00Z,30.2513,-88.0778,9.68,2.4,248.7,-9999.0,'1111122,1111122,1111122' 
DISL,ioos:station:DISL:DISL:1,2012-04-01T11:00:00Z,30.2513,-88.0778,9.68,1.93,257.1,-9999.0,'1111122,1111122,1111122' 
DISL,ioos:station:DISL:DISL:1,2012-04-01T11:30:00Z,30.2513,-88.0778,9.68,1.68,261.5,-9999.0,'1111122,1111122,1111122' 
DISL,ioos:station:DISL:DISL:1,2012-04-01T12:00:00Z,30.2513,-88.0778,9.68,1.76,269.3,-9999.0,'1111122,1111122,1111122' 
DISL,ioos:station:DISL:DISL:1,2012-04-01T12:30:00Z,30.2513,-88.0778,9.68,1.8,277.7,-9999.0,'1111122,1111122,1111122' 
DISL,ioos:station:DISL:DISL:1,2012-04-01T13:00:00Z,30.2513,-88.0778,9.68,2.42,292.3,-9999.0,'1111122,1111122,1111122' 
DISL,ioos:station:DISL:DISL:1,2012-04-01T13:30:00Z,30.2513,-88.0778,9.68,2.18,328.3,-9999.0,'1111122,1111122,1111122' 
DISL,ioos:station:DISL:DISL:1,2012-04-01T14:00:00Z,30.2513,-88.0778,9.68,1.61,336.8,-9999.0,'1111122,1111122,1111122' 
DISL,ioos:station:DISL:DISL:1,2012-04-01T14:30:00Z,30.2513,-88.0778,9.68,1.55,343.7,-9999.0,'1111122,1111122,1111122' 
DISL,ioos:station:DISL:DISL:1,2012-04-01T15:00:00Z,30.2513,-88.0778,9.68,0.81,25.4,-9999.0,'1111122,1111122,1111122' 
DISL,ioos:station:DISL:DISL:1,2012-04-01T15:30:00Z,30.2513,-88.0778,9.68,1.16,100.1,-9999.0,'1111122,1111122,1111122' 
DISL,ioos:station:DISL:DISL:1,2012-04-01T16:00:00Z,30.2513,-88.0778,9.68,1.86,155.5,-9999.0,'1111122,1111122,1111122' 
DISL,ioos:station:DISL:DISL:1,2012-04-01T16:30:00Z,30.2513,-88.0778,9.68,2.57,182.9,-9999.0,'1111122,1111122,1111122' 
DISL,ioos:station:DISL:DISL:1,2012-04-01T17:00:00Z,30.2513,-88.0778,9.68,2.76,209.9,-9999.0,'1111122,1111122,1111122' 
DISL,ioos:station:DISL:DISL:1,2012-04-01T17:30:00Z,30.2513,-88.0778,9.68,3.44,208.3,-9999.0,'1111122,1111122,1111122' 
DISL,ioos:station:DISL:DISL:1,2012-04-01T18:00:00Z,30.2513,-88.0778,9.68,2.8,195.8,-9999.0,'1111122,1111122,1111122' 
DISL,ioos:station:DISL:DISL:1,2012-04-01T18:30:00Z,30.2513,-88.0778,9.68,3.27,207.1,-9999.0,'1111122,1111122,1111122' 
DISL,ioos:station:DISL:DISL:1,2012-04-01T19:00:00Z,30.2513,-88.0778,9.68,3.15,204.5,-9999.0,'1111122,1111122,1111122' 
DISL,ioos:station:DISL:DISL:1,2012-04-01T19:30:00Z,30.2513,-88.0778,9.68,3.06,214.8,-9999.0,'1111122,1111122,1111122' 
DISL,ioos:station:DISL:DISL:1,2012-04-01T20:00:00Z,30.2513,-88.0778,9.68,3.14,201.9,-9999.0,'1111122,1111122,1111122' 
DISL,ioos:station:DISL:DISL:1,2012-04-01T20:30:00Z,30.2513,-88.0778,9.68,2.99,211.8,-9999.0,'1111122,1111122,1111122' 
DISL,ioos:station:DISL:DISL:1,2012-04-01T21:00:00Z,30.2513,-88.0778,9.68,2.65,206.9,-9999.0,'1111122,1111122,1111122' 
DISL,ioos:station:DISL:DISL:1,2012-04-01T21:30:00Z,30.2513,-88.0778,9.68,2.7,207.7,-9999.0,'1111122,1111122,1111122' 
DISL,ioos:station:DISL:DISL:1,2012-04-01T22:00:00Z,30.2513,-88.0778,9.68,2.63,199.8,-9999.0,'1111122,1111122,1111122' 
DISL,ioos:station:DISL:DISL:1,2012-04-01T22:30:00Z,30.2513,-88.0778,9.68,2.9,205.3,-9999.0,'1111122,1111122,1111122' 
DISL,ioos:station:DISL:DISL:1,2012-04-01T23:00:00Z,30.2513,-88.0778,9.68,2.82,182.0,-9999.0,'1111122,1111122,1111122' 
DISL,ioos:station:DISL:DISL:1,2012-04-01T23:30:00Z,30.2513,-88.0778,9.68,2.48,195.3,-9999.0,'1111122,1111122,1111122' 
DISL,ioos:station:DISL:DISL:1,2012-04-02T00:00:00Z,30.2513,-88.0778,9.68,2.09,189.4,-9999.0,'1111122,1111122,1111122' 
DISL,ioos:station:DISL:DISL:1,2012-04-02T00:30:00Z,30.2513,-88.0778,9.68,2.74,201.3,-9999.0,'1111122,1111122,1111122' 
DISL,ioos:station:DISL:DISL:1,2012-04-02T01:00:00Z,30.2513,-88.0778,9.68,2.55,198.4,-9999.0,'1111122,1111122,1111122' 
DISL,ioos:station:DISL:DISL:1,2012-04-02T01:30:00Z,30.2513,-88.0778,9.68,2.31,181.2,-9999.0,'1111122,1111122,1111122' 
DISL,ioos:station:DISL:DISL:1,2012-04-02T02:00:00Z,30.2513,-88.0778,9.68,2.7,201.1,-9999.0,'1111122,1111122,1111122' 
DISL,ioos:station:DISL:DISL:1,2012-04-02T02:30:00Z,30.2513,-88.0778,9.68,2.87,188.0,-9999.0,'1111122,1111122,1111122' 
DISL,ioos:station:DISL:DISL:1,2012-04-02T03:00:00Z,30.2513,-88.0778,9.68,2.6,189.4,-9999.0,'1111122,1111122,1111122' 
DISL,ioos:station:DISL:DISL:1,2012-04-02T03:30:00Z,30.2513,-88.0778,9.68,2.34,200.2,-9999.0,'1111122,1111122,1111122' 
DISL,ioos:station:DISL:DISL:1,2012-04-02T04:00:00Z,30.2513,-88.0778,9.68,2.84,190.5,-9999.0,'1111122,1111122,1111122' 
DISL,ioos:station:DISL:DISL:1,2012-04-02T04:30:00Z,30.2513,-88.0778,9.68,2.81,187.5,-9999.0,'1111122,1111122,1111122' 
DISL,ioos:station:DISL:DISL:1,2012-04-02T05:00:00Z,30.2513,-88.0778,9.68,2.82,177.2,-9999.0,'1111122,1111122,1111122' 
DISL,ioos:station:DISL:DISL:1,2012-04-02T05:30:00Z,30.2513,-88.0778,9.68,2.71,183.1,-9999.0,'1111122,1111122,1111122' 
DISL,ioos:station:DISL:DISL:1,2012-04-02T06:00:00Z,30.2513,-88.0778,9.68,2.95,185.1,-9999.0,'1111122,1111122,1111122' 
DISL,ioos:station:DISL:DISL:1,2012-04-02T06:30:00Z,30.2513,-88.0778,9.68,3.46,190.1,-9999.0,'1111122,1111122,1111122' 
DISL,ioos:station:DISL:DISL:1,2012-04-02T07:00:00Z,30.2513,-88.0778,9.68,3.58,181.3,-9999.0,'1111122,1111122,1111122' 
DISL,ioos:station:DISL:DISL:1,2012-04-02T07:30:00Z,30.2513,-88.0778,9.68,2.64,194.3,-9999.0,'1111122,1111122,1111122' 
DISL,ioos:station:DISL:DISL:1,2012-04-02T08:00:00Z,30.2513,-88.0778,9.68,3.69,195.0,-9999.0,'1111122,1111122,1111122' 
DISL,ioos:station:DISL:DISL:1,2012-04-02T08:30:00Z,30.2513,-88.0778,9.68,3.02,196.9,-9999.0,'1111122,1111122,1111122' 
DISL,ioos:station:DISL:DISL:1,2012-04-02T09:00:00Z,30.2513,-88.0778,9.68,3.48,199.2,-9999.0,'1111122,1111122,1111122' 
DISL,ioos:station:DISL:DISL:1,2012-04-02T09:30:00Z,30.2513,-88.0778,9.68,2.92,200.2,-9999.0,'1111122,1111122,1111122' 
DISL,ioos:station:DISL:DISL:1,2012-04-02T10:00:00Z,30.2513,-88.0778,9.68,2.22,193.9,-9999.0,'1111122,1111122,1111122' 
DISL,ioos:station:DISL:DISL:1,2012-04-02T10:30:00Z,30.2513,-88.0778,9.68,1.96,202.7,-9999.0,'1111122,1111122,1111122' 
DISL,ioos:station:DISL:DISL:1,2012-04-02T11:00:00Z,30.2513,-88.0778,9.68,1.83,185.6,-9999.0,'1111122,1111122,1111122' 
DISL,ioos:station:DISL:DISL:1,2012-04-02T11:30:00Z,30.2513,-88.0778,9.68,1.84,201.5,-9999.0,'1111122,1111122,1111122' 
DISL,ioos:station:DISL:DISL:1,2012-04-02T12:00:00Z,30.2513,-88.0778,9.68,1.78,182.8,-9999.0,'1111122,1111122,1111122' 
DISL,ioos:station:DISL:DISL:1,2012-04-02T12:30:00Z,30.2513,-88.0778,9.68,1.46,189.0,-9999.0,'1111122,1111122,1111122' 
DISL,ioos:station:DISL:DISL:1,2012-04-02T13:00:00Z,30.2513,-88.0778,9.68,1.36,192.8,-9999.0,'1111122,1111122,1111122' 
DISL,ioos:station:DISL:DISL:1,2012-04-02T13:30:00Z,30.2513,-88.0778,9.68,1.58,186.8,-9999.0,'1111122,1111122,1111122' 
DISL,ioos:station:DISL:DISL:1,2012-04-02T14:00:00Z,30.2513,-88.0778,9.68,1.89,181.6,-9999.0,'1111122,1111122,1111122' 
DISL,ioos:station:DISL:DISL:1,2012-04-02T14:30:00Z,30.2513,-88.0778,9.68,2.57,165.6,-9999.0,'1111122,1111122,1111122' 
DISL,ioos:station:DISL:DISL:1,2012-04-02T15:00:00Z,30.2513,-88.0778,9.68,3.05,158.6,-9999.0,'1111122,1111122,1111122' 
DISL,ioos:station:DISL:DISL:1,2012-04-02T15:30:00Z,30.2513,-88.0778,9.68,3.04,133.3,-9999.0,'1111122,1111122,1111122' 
DISL,ioos:station:DISL:DISL:1,2012-04-02T16:00:00Z,30.2513,-88.0778,9.68,3.71,129.5,-9999.0,'1111122,1111122,1111122' 
DISL,ioos:station:DISL:DISL:1,2012-04-02T16:30:00Z,30.2513,-88.0778,9.68,3.42,142.8,-9999.0,'1111122,1111122,1111122' 
DISL,ioos:station:DISL:DISL:1,2012-04-02T17:00:00Z,30.2513,-88.0778,9.68,3.25,141.8,-9999.0,'1111122,1111122,1111122' 
DISL,ioos:station:DISL:DISL:1,2012-04-02T17:30:00Z,30.2513,-88.0778,9.68,3.7,124.5,-9999.0,'1111122,1111122,1111122' 
DISL,ioos:station:DISL:DISL:1,2012-04-02T18:00:00Z,30.2513,-88.0778,9.68,4.21,146.7,-9999.0,'1111122,1111122,1111122' 
DISL,ioos:station:DISL:DISL:1,2012-04-02T18:30:00Z,30.2513,-88.0778,9.68,4.25,149.9,-9999.0,'1111122,1111122,1111122' 
DISL,ioos:station:DISL:DISL:1,2012-04-02T19:00:00Z,30.2513,-88.0778,9.68,4.09,162.0,-9999.0,'1111122,1111122,1111122' 
DISL,ioos:station:DISL:DISL:1,2012-04-02T19:30:00Z,30.2513,-88.0778,9.68,5.89,160.7,-9999.0,'1111122,1111122,1111122' 
DISL,ioos:station:DISL:DISL:1,2012-04-02T20:00:00Z,30.2513,-88.0778,9.68,5.27,158.0,-9999.0,'1111122,1111122,1111122' 
DISL,ioos:station:DISL:DISL:1,2012-04-02T20:30:00Z,30.2513,-88.0778,9.68,5.43,164.8,-9999.0,'1111122,1111122,1111122' 
DISL,ioos:station:DISL:DISL:1,2012-04-02T21:00:00Z,30.2513,-88.0778,9.68,4.98,147.7,-9999.0,'1111122,1111122,1111122' 
DISL,ioos:station:DISL:DISL:1,2012-04-02T21:30:00Z,30.2513,-88.0778,9.68,4.8,167.0,-9999.0,'1111122,1111122,1111122' 
DISL,ioos:station:DISL:DISL:1,2012-04-02T22:00:00Z,30.2513,-88.0778,9.68,5.38,168.4,-9999.0,'1111122,1111122,1111122' 
DISL,ioos:station:DISL:DISL:1,2012-04-02T22:30:00Z,30.2513,-88.0778,9.68,5.04,158.9,-9999.0,'1111122,1111122,1111122' 
DISL,ioos:station:DISL:DISL:1,2012-04-02T23:00:00Z,30.2513,-88.0778,9.68,4.78,155.2,-9999.0,'1111122,1111122,1111122' 
DISL,ioos:station:DISL:DISL:1,2012-04-02T23:30:00Z,30.2513,-88.0778,9.68,4.32,166.1,-9999.0,'1111122,1111122,1111122' 
DISL,ioos:station:DISL:DISL:1,2012-04-03T00:00:00Z,30.2513,-88.0778,9.68,3.54,157.4,-9999.0,'1111122,1111122,1111122' 
DISL,ioos:station:DISL:DISL:1,2012-04-03T00:30:00Z,30.2513,-88.0778,9.68,2.8,156.9,-9999.0,'1111122,1111122,1111122' 
DISL,ioos:station:DISL:DISL:1,2012-04-03T01:00:00Z,30.2513,-88.0778,9.68,4.12,147.5,-9999.0,'1111122,1111122,1111122' 
DISL,ioos:station:DISL:DISL:1,2012-04-03T01:30:00Z,30.2513,-88.0778,9.68,3.99,149.0,-9999.0,'1111122,1111122,1111122' 
DISL,ioos:station:DISL:DISL:1,2012-04-03T02:00:00Z,30.2513,-88.0778,9.68,2.78,157.9,-9999.0,'1111122,1111122,1111122' 
DISL,ioos:station:DISL:DISL:1,2012-04-03T02:30:00Z,30.2513,-88.0778,9.68,3.47,175.0,-9999.0,'1111122,1111122,1111122' 
DISL,ioos:station:DISL:DISL:1,2012-04-03T03:00:00Z,30.2513,-88.0778,9.68,2.77,178.6,-9999.0,'1111122,1111122,1111122' 
DISL,ioos:station:DISL:DISL:1,2012-04-03T03:30:00Z,30.2513,-88.0778,9.68,6.85,327.0,-9999.0,'1111122,1111122,1111122' 
DISL,ioos:station:DISL:DISL:1,2012-04-03T04:00:00Z,30.2513,-88.0778,9.68,8.33,305.7,-9999.0,'1111122,1111122,1111122' 
DISL,ioos:station:DISL:DISL:1,2012-04-03T04:30:00Z,30.2513,-88.0778,9.68,8.94,350.9,-9999.0,'1111122,1111122,1111122' 
DISL,ioos:station:DISL:DISL:1,2012-04-03T05:00:00Z,30.2513,-88.0778,9.68,9.28,4.959,-9999.0,'1111122,1111122,1111122' 
DISL,ioos:station:DISL:DISL:1,2012-04-03T05:30:00Z,30.2513,-88.0778,9.68,4.94,286.7,-9999.0,'1111122,1111122,1111122' 
DISL,ioos:station:DISL:DISL:1,2012-04-03T06:00:00Z,30.2513,-88.0778,9.68,6.38,321.3,-9999.0,'1111122,1111122,1111122' 
DISL,ioos:station:DISL:DISL:1,2012-04-03T06:30:00Z,30.2513,-88.0778,9.68,6.5,312.6,-9999.0,'1111122,1111122,1111122' 
DISL,ioos:station:DISL:DISL:1,2012-04-03T07:00:00Z,30.2513,-88.0778,9.68,5.18,263.9,-9999.0,'1111122,1111122,1111122' 
DISL,ioos:station:DISL:DISL:1,2012-04-03T07:30:00Z,30.2513,-88.0778,9.68,7.53,348.7,-9999.0,'1111122,1111122,1111122' 
DISL,ioos:station:DISL:DISL:1,2012-04-03T08:00:00Z,30.2513,-88.0778,9.68,7.95,1.772,-9999.0,'1111122,1111122,1111122' 
DISL,ioos:station:DISL:DISL:1,2012-04-03T08:30:00Z,30.2513,-88.0778,9.68,6.75,353.2,-9999.0,'1111122,1111122,1111122' 
DISL,ioos:station:DISL:DISL:1,2012-04-03T09:00:00Z,30.2513,-88.0778,9.68,4.91,309.6,-9999.0,'1111122,1111122,1111122' 
DISL,ioos:station:DISL:DISL:1,2012-04-03T09:30:00Z,30.2513,-88.0778,9.68,1.36,176.0,-9999.0,'1111122,1111122,1111122' 
DISL,ioos:station:DISL:DISL:1,2012-04-03T10:00:00Z,30.2513,-88.0778,9.68,2.7,70.4,-9999.0,'1111122,1111122,1111122' 
DISL,ioos:station:DISL:DISL:1,2012-04-03T10:30:00Z,30.2513,-88.0778,9.68,6.45,102.8,-9999.0,'1111122,1111122,1111122' 
DISL,ioos:station:DISL:DISL:1,2012-04-03T11:00:00Z,30.2513,-88.0778,9.68,8.42,114.7,-9999.0,'1111122,1111122,1111122' 
DISL,ioos:station:DISL:DISL:1,2012-04-03T11:30:00Z,30.2513,-88.0778,9.68,7.72,104.8,-9999.0,'1111122,1111122,1111122' 
DISL,ioos:station:DISL:DISL:1,2012-04-03T12:00:00Z,30.2513,-88.0778,9.68,6.59,128.5,-9999.0,'1111122,1111122,1111122' 
DISL,ioos:station:DISL:DISL:1,2012-04-03T12:30:00Z,30.2513,-88.0778,9.68,6.07,143.3,-9999.0,'1111122,1111122,1111122' 
DISL,ioos:station:DISL:DISL:1,2012-04-03T13:00:00Z,30.2513,-88.0778,9.68,7.03,151.4,-9999.0,'1111122,1111122,1111122' 
DISL,ioos:station:DISL:DISL:1,2012-04-03T13:30:00Z,30.2513,-88.0778,9.68,4.71,145.7,-9999.0,'1111122,1111122,1111122' 
DISL,ioos:station:DISL:DISL:1,2012-04-03T14:00:00Z,30.2513,-88.0778,9.68,4.35,158.2,-9999.0,'1111122,1111122,1111122' 
DISL,ioos:station:DISL:DISL:1,2012-04-03T14:30:00Z,30.2513,-88.0778,9.68,4.39,158.8,-9999.0,'1111122,1111122,1111122' 
DISL,ioos:station:DISL:DISL:1,2012-04-03T15:00:00Z,30.2513,-88.0778,9.68,3.42,158.2,-9999.0,'1111122,1111122,1111122' 
DISL,ioos:station:DISL:DISL:1,2012-04-03T15:30:00Z,30.2513,-88.0778,9.68,3.79,155.7,-9999.0,'1111122,1111122,1111122' 
DISL,ioos:station:DISL:DISL:1,2012-04-03T16:00:00Z,30.2513,-88.0778,9.68,2.49,175.3,-9999.0,'1111122,1111122,1111122' 
DISL,ioos:station:DISL:DISL:1,2012-04-03T16:30:00Z,30.2513,-88.0778,9.68,1.83,139.2,-9999.0,'1111122,1111122,1111122' 
DISL,ioos:station:DISL:DISL:1,2012-04-03T17:00:00Z,30.2513,-88.0778,9.68,2.27,118.2,-9999.0,'1111122,1111122,1111122' 
DISL,ioos:station:DISL:DISL:1,2012-04-03T17:30:00Z,30.2513,-88.0778,9.68,2.44,130.2,-9999.0,'1111122,1111122,1111122' 
DISL,ioos:station:DISL:DISL:1,2012-04-03T18:00:00Z,30.2513,-88.0778,9.68,2.06,201.9,-9999.0,'1111122,1111122,1111122' 
DISL,ioos:station:DISL:DISL:1,2012-04-03T18:30:00Z,30.2513,-88.0778,9.68,2.04,162.2,-9999.0,'1111122,1111122,1111122' 
DISL,ioos:station:DISL:DISL:1,2012-04-03T19:00:00Z,30.2513,-88.0778,9.68,1.22,160.5,-9999.0,'1111122,1111122,1111122' 
DISL,ioos:station:DISL:DISL:1,2012-04-03T19:30:00Z,30.2513,-88.0778,9.68,2.2,102.5,-9999.0,'1111122,1111122,1111122' 
DISL,ioos:station:DISL:DISL:1,2012-04-03T20:00:00Z,30.2513,-88.0778,9.68,2.48,163.3,-9999.0,'1111122,1111122,1111122' 
DISL,ioos:station:DISL:DISL:1,2012-04-03T20:30:00Z,30.2513,-88.0778,9.68,2.31,164.6,-9999.0,'1111122,1111122,1111122' 
DISL,ioos:station:DISL:DISL:1,2012-04-03T21:00:00Z,30.2513,-88.0778,9.68,2.34,178.6,-9999.0,'1111122,1111122,1111122' 
DISL,ioos:station:DISL:DISL:1,2012-04-03T21:30:00Z,30.2513,-88.0778,9.68,2.83,177.9,-9999.0,'1111122,1111122,1111122' 
DISL,ioos:station:DISL:DISL:1,2012-04-03T22:00:00Z,30.2513,-88.0778,9.68,2.04,178.3,-9999.0,'1111122,1111122,1111122' 
DISL,ioos:station:DISL:DISL:1,2012-04-03T22:30:00Z,30.2513,-88.0778,9.68,3.31,151.3,-9999.0,'1111122,1111122,1111122' 
DISL,ioos:station:DISL:DISL:1,2012-04-03T23:00:00Z,30.2513,-88.0778,9.68,2.93,151.9,-9999.0,'1111122,1111122,1111122' 
DISL,ioos:station:DISL:DISL:1,2012-04-03T23:30:00Z,30.2513,-88.0778,9.68,3.69,142.5,-9999.0,'1111122,1111122,1111122' 
DISL,ioos:station:DISL:DISL:1,2012-04-04T00:00:00Z,30.2513,-88.0778,9.68,3.5,136.8,-9999.0,'1111122,1111122,1111122' 
DISL,ioos:station:DISL:DISL:1,2012-04-04T00:30:00Z,30.2513,-88.0778,9.68,3.22,133.2,-9999.0,'1111122,1111122,1111122' 
DISL,ioos:station:DISL:DISL:1,2012-04-04T01:00:00Z,30.2513,-88.0778,9.68,3.51,133.3,-9999.0,'1111122,1111122,1111122' 
DISL,ioos:station:DISL:DISL:1,2012-04-04T01:30:00Z,30.2513,-88.0778,9.68,3.82,129.2,-9999.0,'1111122,1111122,1111122' 
DISL,ioos:station:DISL:DISL:1,2012-04-04T02:00:00Z,30.2513,-88.0778,9.68,3.89,125.5,-9999.0,'1111122,1111122,1111122' 
DISL,ioos:station:DISL:DISL:1,2012-04-04T02:30:00Z,30.2513,-88.0778,9.68,4.76,124.3,-9999.0,'1111122,1111122,1111122' 
DISL,ioos:station:DISL:DISL:1,2012-04-04T03:00:00Z,30.2513,-88.0778,9.68,4.75,122.0,-9999.0,'1111122,1111122,1111122' 
DISL,ioos:station:DISL:DISL:1,2012-04-04T03:30:00Z,30.2513,-88.0778,9.68,4.52,129.3,-9999.0,'1111122,1111122,1111122' 
DISL,ioos:station:DISL:DISL:1,2012-04-04T04:00:00Z,30.2513,-88.0778,9.68,4.02,125.8,-9999.0,'1111122,1111122,1111122' 
DISL,ioos:station:DISL:DISL:1,2012-04-04T04:30:00Z,30.2513,-88.0778,9.68,3.64,123.2,-9999.0,'1111122,1111122,1111122' 
DISL,ioos:station:DISL:DISL:1,2012-04-04T05:00:00Z,30.2513,-88.0778,9.68,3.28,118.2,-9999.0,'1111122,1111122,1111122' 
DISL,ioos:station:DISL:DISL:1,2012-04-04T05:30:00Z,30.2513,-88.0778,9.68,3.27,128.5,-9999.0,'1111122,1111122,1111122' 
DISL,ioos:station:DISL:DISL:1,2012-04-04T06:00:00Z,30.2513,-88.0778,9.68,2.36,106.8,-9999.0,'1111122,1111122,1111122' 
DISL,ioos:station:DISL:DISL:1,2012-04-04T06:30:00Z,30.2513,-88.0778,9.68,2.5,92.4,-9999.0,'1111122,1111122,1111122' 
DISL,ioos:station:DISL:DISL:1,2012-04-04T07:00:00Z,30.2513,-88.0778,9.68,2.46,86.2,-9999.0,'1111122,1111122,1111122' 
DISL,ioos:station:DISL:DISL:1,2012-04-04T07:30:00Z,30.2513,-88.0778,9.68,3.97,88.0,-9999.0,'1111122,1111122,1111122' 
DISL,ioos:station:DISL:DISL:1,2012-04-04T08:00:00Z,30.2513,-88.0778,9.68,4.32,54.71,-9999.0,'1111122,1111122,1111122' 
DISL,ioos:station:DISL:DISL:1,2012-04-04T08:30:00Z,30.2513,-88.0778,9.68,13.07,297.7,-9999.0,'1111122,1111122,1111122' 
DISL,ioos:station:DISL:DISL:1,2012-04-04T09:00:00Z,30.2513,-88.0778,9.68,14.02,326.6,-9999.0,'1111122,1111122,1111122' 
DISL,ioos:station:DISL:DISL:1,2012-04-04T09:30:00Z,30.2513,-88.0778,9.68,12.28,0.87,-9999.0,'1111122,1111122,1111122' 
DISL,ioos:station:DISL:DISL:1,2012-04-04T10:00:00Z,30.2513,-88.0778,9.68,7.97,353.0,-9999.0,'1111122,1111122,1111122' 
DISL,ioos:station:DISL:DISL:1,2012-04-04T10:30:00Z,30.2513,-88.0778,9.68,6.45,354.1,-9999.0,'1111122,1111122,1111122' 
DISL,ioos:station:DISL:DISL:1,2012-04-04T11:00:00Z,30.2513,-88.0778,9.68,6.7,285.2,-9999.0,'1111122,1111122,1111122' 
DISL,ioos:station:DISL:DISL:1,2012-04-04T11:30:00Z,30.2513,-88.0778,9.68,4.47,304.3,-9999.0,'1111122,1111122,1111122' 
DISL,ioos:station:DISL:DISL:1,2012-04-04T12:00:00Z,30.2513,-88.0778,9.68,3.86,287.4,-9999.0,'1111122,1111122,1111122' 
DISL,ioos:station:DISL:DISL:1,2012-04-04T12:30:00Z,30.2513,-88.0778,9.68,2.7,253.2,-9999.0,'1111122,1111122,1111122' 
DISL,ioos:station:DISL:DISL:1,2012-04-04T13:00:00Z,30.2513,-88.0778,9.68,3.18,257.6,-9999.0,'1111122,1111122,1111122' 
DISL,ioos:station:DISL:DISL:1,2012-04-04T13:30:00Z,30.2513,-88.0778,9.68,5.78,345.1,-9999.0,'1111122,1111122,1111122' 
DISL,ioos:station:DISL:DISL:1,2012-04-04T14:00:00Z,30.2513,-88.0778,9.68,6.83,335.3,-9999.0,'1111122,1111122,1111122' 
DISL,ioos:station:DISL:DISL:1,2012-04-04T14:30:00Z,30.2513,-88.0778,9.68,11.0,306.8,-9999.0,'1111122,1111122,1111122' 
DISL,ioos:station:DISL:DISL:1,2012-04-04T15:00:00Z,30.2513,-88.0778,9.68,9.67,306.6,-9999.0,'1111122,1111122,1111122' 
DISL,ioos:station:DISL:DISL:1,2012-04-04T15:30:00Z,30.2513,-88.0778,9.68,9.31,310.2,-9999.0,'1111122,1111122,1111122' 
DISL,ioos:station:DISL:DISL:1,2012-04-04T16:00:00Z,30.2513,-88.0778,9.68,7.83,299.2,-9999.0,'1111122,1111122,1111122' 
DISL,ioos:station:DISL:DISL:1,2012-04-04T16:30:00Z,30.2513,-88.0778,9.68,3.63,322.9,-9999.0,'1111122,1111122,1111122' 
DISL,ioos:station:DISL:DISL:1,2012-04-04T17:00:00Z,30.2513,-88.0778,9.68,4.43,0.353,-9999.0,'1111122,1111122,1111122' 
DISL,ioos:station:DISL:DISL:1,2012-04-04T17:30:00Z,30.2513,-88.0778,9.68,6.21,84.2,-9999.0,'1111122,1111122,1111122' 
DISL,ioos:station:DISL:DISL:1,2012-04-04T18:00:00Z,30.2513,-88.0778,9.68,8.06,121.5,-9999.0,'1111122,1111122,1111122' 
DISL,ioos:station:DISL:DISL:1,2012-04-04T18:30:00Z,30.2513,-88.0778,9.68,6.69,157.1,-9999.0,'1111122,1111122,1111122' 
DISL,ioos:station:DISL:DISL:1,2012-04-04T19:00:00Z,30.2513,-88.0778,9.68,6.82,164.8,-9999.0,'1111122,1111122,1111122' 
DISL,ioos:station:DISL:DISL:1,2012-04-04T19:30:00Z,30.2513,-88.0778,9.68,6.74,159.0,-9999.0,'1111122,1111122,1111122' 
DISL,ioos:station:DISL:DISL:1,2012-04-04T20:00:00Z,30.2513,-88.0778,9.68,5.86,174.1,-9999.0,'1111122,1111122,1111122' 
DISL,ioos:station:DISL:DISL:1,2012-04-04T20:30:00Z,30.2513,-88.0778,9.68,6.04,169.4,-9999.0,'1111122,1111122,1111122' 
DISL,ioos:station:DISL:DISL:1,2012-04-04T21:00:00Z,30.2513,-88.0778,9.68,6.26,152.2,-9999.0,'1111122,1111122,1111122' 
DISL,ioos:station:DISL:DISL:1,2012-04-04T21:30:00Z,30.2513,-88.0778,9.68,6.25,156.4,-9999.0,'1111122,1111122,1111122' 
DISL,ioos:station:DISL:DISL:1,2012-04-04T22:00:00Z,30.2513,-88.0778,9.68,4.35,150.4,-9999.0,'1111122,1111122,1111122' 
DISL,ioos:station:DISL:DISL:1,2012-04-04T22:30:00Z,30.2513,-88.0778,9.68,5.38,145.8,-9999.0,'1111122,1111122,1111122' 
DISL,ioos:station:DISL:DISL:1,2012-04-04T23:00:00Z,30.2513,-88.0778,9.68,3.61,146.6,-9999.0,'1111122,1111122,1111122' 
DISL,ioos:station:DISL:DISL:1,2012-04-04T23:30:00Z,30.2513,-88.0778,9.68,3.52,146.0,-9999.0,'1111122,1111122,1111122' 
DISL,ioos:station:DISL:DISL:1,2012-04-05T00:00:00Z,30.2513,-88.0778,9.68,2.65,144.6,-9999.0,'1111122,1111122,1111122' 
DISL,ioos:station:DISL:DISL:1,2012-04-05T00:30:00Z,30.2513,-88.0778,9.68,2.09,144.8,-9999.0,'1111122,1111122,1111122' 
DISL,ioos:station:DISL:DISL:1,2012-04-05T01:00:00Z,30.2513,-88.0778,9.68,1.9,146.6,-9999.0,'1111122,1111122,1111122' 
DISL,ioos:station:DISL:DISL:1,2012-04-05T01:30:00Z,30.2513,-88.0778,9.68,1.44,128.2,-9999.0,'1111122,1111122,1111122' 
DISL,ioos:station:DISL:DISL:1,2012-04-05T02:00:00Z,30.2513,-88.0778,9.68,1.23,126.0,-9999.0,'1111122,1111122,1111122' 
DISL,ioos:station:DISL:DISL:1,2012-04-05T02:30:00Z,30.2513,-88.0778,9.68,0.0,0.0,-9999.0,'1114422,1114422,1111122' 
DISL,ioos:station:DISL:DISL:1,2012-04-05T03:00:00Z,30.2513,-88.0778,9.68,0.56,300.3,-9999.0,'1111122,1111122,1111122' 
DISL,ioos:station:DISL:DISL:1,2012-04-05T03:30:00Z,30.2513,-88.0778,9.68,1.07,271.8,-9999.0,'1111122,1111122,1111122' 
DISL,ioos:station:DISL:DISL:1,2012-04-05T04:00:00Z,30.2513,-88.0778,9.68,0.0,0.0,-9999.0,'1114422,1114422,1111122' 